Regional Weather Roundup
Issued by NWS Charleston, SC

Current Version | Previous Version | Graphics & Text | Print | Product List | Glossary On
Versions: 1 2 3 4 5 6 7 8 9 10 11 12 13 14 15 16 17 18 19 20 21 22 23 24 25 26 27 28 29 30 31 32 33 34 35 36 37 38 39 40 41 42 43 44 45 46 47 48 49 50
000
ASUS42 KCHS 240012
RWRCHS

REGIONAL WEATHER ROUNDUP
NATIONAL WEATHER SERVICE CHARLESTON SC
800 PM EDT SUN JUL 23 2017

NOTE: "FAIR" INDICATES FEW OR NO CLOUDS BELOW 12,000 FEET WITH NO
SIGNIFICANT WEATHER AND/OR OBSTRUCTIONS TO VISIBILITY.

NOT ALL STATIONS ARE QUALITY CONTROLLED. USE DATA WITH CAUTION...
ESPECIALLY DEWPOINT OBSERVATIONS.

SCZ027-030-031-034>040-042>050-240100-
...SOUTHEAST SOUTH CAROLINA...

CITY           SKY/WX    TMP DP  RH WIND       PRES   REMARKS
N CHARLESTON   CLOUDY    81  74  79 SW5       29.88F
6HR MIN TEMP:  81; 6HR MAX TEMP:  92;

WATERFRONT PRK   N/A     83  77  81 SW8       29.86F HX  92
JOHNS ISLAND   FAIR      82  77  83 S12       29.88F HX  91
PINOPOLIS        N/A     81  79  94 VRB3      29.81F
MONCKS CORNER  FAIR      81  75  83 CALM      29.90R
SUMMERVILLE    FAIR      77  75  94 CALM      29.90S
BEAUFORT MCAS  CLOUDY    82  76  81 S9        29.88F
6HR MIN TEMP:  82; 6HR MAX TEMP:  93; 6HR PCP: TRACE;

BEAUFORT ARPT  FAIR      81  73  78 S8G16     29.87F
HILTON HEAD IS MOCLDY    82  75  78 SW7       29.91S
WALTERBORO     CLOUDY    79  77  94 CALM      29.89S
ALLENDALE      NOT AVBL

...SOUTHERN MIDLANDS AND PEE DEE...

CITY           SKY/WX    TMP DP  RH WIND       PRES   REMARKS
GEORGETOWN     FAIR      81  77  89 SW8       29.91R
KINGSTREE      MOCLDY    79  73  83 N10       29.95R
ORANGEBURG     MOCLDY    79  71  76 SW3       29.91R
6HR MIN TEMP:  80; 6HR MAX TEMP:  94;

BARNWELL       FAIR      86  75  70 SW8       29.87S HX  95
AIKEN          TSTM      73  72  94 NW14G21   29.96R
MANNING        FAIR      77  75  94 CALM      29.91R
COLUMBIA       TSTM      76  72  87 S22G28    29.89R FOG
6HR MIN TEMP:  75; 6HR MAX TEMP:  97; 6HR PCP:  0.50;

SUMTER         LGT RAIN  73  72  94 E6        29.91R
6HR MIN TEMP:  73; 6HR MAX TEMP:  95; 6HR PCP:  0.19;

FLORENCE       TSTM      73  72  96 SE6       29.96S FOG
6HR MIN TEMP:  73; 6HR MAX TEMP:  95; 6HR PCP:  0.41;

MYRTLE BEACH   PTCLDY    82  75  78 SW16      29.92R
N MYRTLE BEACH PTCLDY    83  75  77 SW9       29.91R HX  90
6HR MIN TEMP:  82; 6HR MAX TEMP:  88;


$$

GAZ063-065-086>088-099>101-113>116-118-119-134>141-150-240100-
...SOUTHEAST GEORGIA...

CITY           SKY/WX    TMP DP  RH WIND       PRES   REMARKS
SAVANNAH ARPT  CLOUDY    82  73  74 S7        29.91
6HR MIN TEMP:  80; 6HR MAX TEMP:  92; 6HR PCP:  0.15;

HUNTER AAF     PTCLDY    79  75  86 S6        29.89R
6HR MIN TEMP:  78; 6HR MAX TEMP:  91; 6HR PCP:  0.28;

FORT STEWART   CLOUDY    78  75  90 S6        29.90R
6HR MIN TEMP:  77; 6HR MAX TEMP:  92; 6HR PCP:  0.46;

STATESBORO     CLOUDY    82  73  76 SW8       29.89S
SYLVANIA       MOCLDY    82  76  82 SW3       29.90R
CLAXTON        FAIR      80  77  90 CALM      29.91R

...CSRA...CENTRAL AND FAR SOUTHEAST GEORGIA...

CITY           SKY/WX    TMP DP  RH WIND       PRES   REMARKS
THOMSON        CLOUDY    87  73  62 W10G16    29.90F HX  94
AUGUSTA-BUSH   MOCLDY    83  70  64 SW10      29.84F
6HR MIN TEMP:  82; 6HR MAX TEMP:  97; 6HR PCP:  0.04;

AUGUSTA-DANIEL CLOUDY    87  69  54 SW9G18    29.86F HX  91
SWAINSBORO     FAIR      79  73  83 SW3       29.91S
VIDALIA        CLOUDY    81  77  89 SW6       29.91S
EASTMAN        MOCLDY    81  69  67 CALM      29.93F
HAZLEHURST     FAIR      81  79  94 SW12      29.90S HX  91
ALMA           CLOUDY    82  74  76 SW7       29.92R
6HR MIN TEMP:  78; 6HR MAX TEMP:  93; 6HR PCP:  0.20;

WAYCROSS       CLOUDY    83  79  86 W6        29.94R HX  95
JESUP          NOT AVBL
BAXLEY         FAIR      81  81 100 S3        29.91S HX  91
BRUNSWICK      MOCLDY    79  77  94 CALM      29.95R
SAINT SIMONS   CLOUDY    80  76  87 SW5       29.93S
6HR MIN TEMP:  74; 6HR MAX TEMP:  85; 6HR PCP:  2.10;


$$

SCZ027-028-034-036>038-045-046-048>050-GAZ119-141-240100-
...LAKE AND SUPPLEMENTAL COASTAL OBSERVATIONS...

STATION/POSITION TIME  TEMP    WIND        PRES    WAVE   SWELL
                       AIR SEA DIR/SP/G            HT/PER HT/PER/DIR
                 (UTC) (F)     (DEG/KT/KT) (MB)    (FT/S) (FT/S/D)
WINYAH BAY       2245   83     230/ 14     1012.0
LAKE MURRAY      2320   78     320/  4/  9 1011.5
ACE BASIN NERRS  2245   83     240/  4     1013.0
FORT PULASKI     2348   82 86  220/ 10/ 13 1013.1R
SAPELO ISLAND    2300   81     200/  9     1013.0

$$

ANZ835-935-AMZ111-154-330-350-352-354-370-450-454-472-240100-
...C-MAN AND BUOY OBSERVATIONS...

STATION/POSITION TIME  TEMP    WIND        PRES    WAVE   SWELL
                       AIR SEA DIR/SP/G            HT/PER HT/PER/DIR
                 (UTC) (F)     (DEG/KT/KT) (MB)    (FT/S) (FT/S/D)
BUOY 41004       2350   82 84  230/ 21/ 25 1012.0F   6/ 6   2/120/ 9
BUOY 41008       2250   80 81  190/ 17/ 19 1012.6    3/ 5   2/ 90/ 8
FOLLY BEACH CMAN 2300   82     220/ 19/ 23 1013.6R
CAPERS NEARSHORE 2308   79 84  230/ 19/ 25 1012.0R
FRIPP NEARSHORE  2308   83 84  230/ 16/ 19 1012.3R


STATION/POSITION TIME  TEMP    WIND        PRES    WAVE   SWELL
                       AIR SEA DIR/SP/G            HT/PER HT/PER/DIR
                 (UTC) (F)     (DEG/KT/KT) (MB)    (FT/S) (FT/S/D)
5E ST. MARYS GA  2330      82                N/A     3/ 9
FRYING PAN BUOY  2350   83 84  220/ 21/ 27 1012.8R   6/ 6   2/150/ 9
BUOY 41025       2350   84 84  210/ 21/ 25 1010.1    7/ 7
CAPE LOOKOUT NC  2300   83     210/ 12/ 18 1010.8F
BUOY 41002       2250   83 83  230/ 16/ 17 1015.9    6/ 9   3/100/ 9
BUOY 41010       2350   84 85  160/ 10/ 14 1016.1F   3/10   3/110/10
ST AUGUSTINE FL  0000   79 76  210/  5/  7 1015.1R


$$



USA.gov is the U.S. government's official web portal to all federal, state and local government web resources and services.